| time (UTC) | temp F | wind direction | speed knots | gust knots | rain 1hr in | rain 24hr in | rain mn in | humidity % | barometer mb |
| 20260504045637 | 50 | 171 | 0.0 | 0.0 | 0.00 | 0.00 | 0.00 | 52 | 1019.2 |
| 20260504045131 | 51 | 171 | 0.0 | 0.0 | 0.00 | 0.00 | 0.00 | 51 | 1019.2 |
| 20260504044624 | 51 | 171 | 0.0 | 0.0 | 0.00 | 0.00 | 0.00 | 50 | 1019.2 |
| 20260504044139 | 52 | 171 | 0.0 | 0.0 | 0.00 | 0.00 | 0.00 | 48 | 1019.2 |
| 20260504043632 | 52 | 171 | 0.0 | 0.0 | 0.00 | 0.00 | 0.00 | 47 | 1019.2 |
| 20260504043125 | 52 | 171 | 0.0 | 0.0 | 0.00 | 0.00 | 0.00 | 50 | 1019.3 |
| 20260504042639 | 52 | 171 | 0.0 | 0.0 | 0.00 | 0.00 | 0.00 | 48 | 1019.2 |
| 20260504042133 | 52 | 171 | 0.0 | 0.0 | 0.00 | 0.00 | 0.00 | 46 | 1019.2 |
| 20260504041630 | 52 | 171 | 0.0 | 0.0 | 0.00 | 0.00 | 0.00 | 46 | 1019.1 |
| 20260504041125 | 52 | 171 | 0.0 | 0.0 | 0.00 | 0.00 | 0.00 | 46 | 1019.0 |
| 20260504040659 | 52 | 171 | 0.0 | 0.0 | 0.00 | 0.00 | 0.00 | 46 | 1019.0 |
| 20260504040131 | 52 | 171 | 0.0 | 0.0 | 0.00 | 0.00 | 0.00 | 44 | 1019.0 |
| 20260504035625 | 52 | 171 | 0.0 | 0.0 | 0.00 | 0.00 | 0.00 | 43 | 1019.0 |
| 20260504035139 | 53 | 171 | 0.0 | 0.9 | 0.00 | 0.00 | 0.00 | 42 | 1018.9 |
| 20260504034631 | 52 | 171 | 0.0 | 1.7 | 0.00 | 0.00 | 0.00 | 42 | 1019.0 |
| 20260504034126 | 52 | 171 | 0.9 | 1.7 | 0.00 | 0.00 | 0.00 | 41 | 1018.9 |
| 20260504033623 | 52 | 240 | 0.0 | 1.7 | 0.00 | 0.00 | 0.00 | 41 | 1018.9 |
| 20260504033138 | 52 | 240 | 0.9 | 1.7 | 0.00 | 0.00 | 0.00 | 39 | 1018.9 |
| 20260504032632 | 52 | 198 | 0.0 | 0.0 | 0.00 | 0.00 | 0.00 | 40 | 1018.9 |
| 20260504032124 | 52 | 240 | 0.0 | 0.0 | 0.00 | 0.00 | 0.00 | 41 | 1018.9 |
| 20260504031639 | 52 | 240 | 0.0 | 0.0 | 0.00 | 0.00 | 0.00 | 37 | 1018.8 |
| 20260504031133 | 53 | 240 | 0.0 | 0.0 | 0.00 | 0.00 | 0.00 | 38 | 1018.7 |
| 20260504030629 | 53 | 240 | 0.0 | 0.0 | 0.00 | 0.00 | 0.00 | 35 | 1018.7 |
| 20260504030125 | 54 | 240 | 0.0 | 0.0 | 0.00 | 0.00 | 0.00 | 35 | 1018.6 |
| 20260504025624 | 54 | 240 | 0.0 | 0.0 | 0.00 | 0.00 | 0.00 | 35 | 1018.6 |
| 20260504025121 | 54 | 240 | 0.0 | 3.5 | 0.00 | 0.00 | 0.00 | 29 | 1018.4 |
| 20260504024636 | 54 | 240 | 0.9 | 3.5 | 0.00 | 0.00 | 0.00 | 29 | 1018.3 |
| 20260504024132 | 54 | 282 | 0.0 | 0.0 | 0.00 | 0.00 | 0.00 | 31 | 1018.2 |
| 20260504023625 | 54 | 282 | 0.0 | 0.0 | 0.00 | 0.00 | 0.00 | 31 | 1018.1 |
| 20260504023139 | 55 | 282 | 0.0 | 0.9 | 0.00 | 0.00 | 0.00 | 31 | 1018.1 |
| 20260504022634 | 55 | 282 | 0.0 | 1.7 | 0.00 | 0.00 | 0.00 | 30 | 1018.0 |
| 20260504022127 | 56 | 282 | 0.9 | 1.7 | 0.00 | 0.00 | 0.00 | 29 | 1018.0 |
| 20260504021626 | 57 | 282 | 0.9 | 1.7 | 0.00 | 0.00 | 0.00 | 29 | 1017.9 |
| 20260504021139 | 57 | 282 | 0.9 | 1.7 | 0.00 | 0.00 | 0.00 | 29 | 1017.8 |
| 20260504020632 | 58 | 282 | 0.0 | 0.0 | 0.00 | 0.00 | 0.00 | 29 | 1017.7 |
| 20260504020127 | 58 | 282 | 0.0 | 0.0 | 0.00 | 0.00 | 0.00 | 29 | 1017.8 |
| 20260504015640 | 60 | 282 | 0.0 | 0.0 | 0.00 | 0.00 | 0.00 | 24 | 1017.7 |
| 20260504015155 | 60 | 282 | 0.0 | 0.9 | 0.00 | 0.00 | 0.00 | 26 | 1017.6 |
| 20260504014628 | 61 | 282 | 0.0 | 1.7 | 0.00 | 0.00 | 0.00 | 28 | 1017.5 |
| 20260504014122 | 62 | 282 | 0.0 | 1.7 | 0.00 | 0.00 | 0.00 | 23 | 1017.5 |
| 20260504013654 | 62 | 282 | 0.9 | 2.6 | 0.00 | 0.00 | 0.00 | 22 | 1017.4 |
| 20260504013128 | 63 | 243 | 0.9 | 2.6 | 0.00 | 0.00 | 0.00 | 21 | 1017.4 |
| 20260504012625 | 63 | 55 | 0.0 | 0.0 | 0.00 | 0.00 | 0.00 | 19 | 1017.4 |
| 20260504012139 | 63 | 55 | 0.0 | 0.9 | 0.00 | 0.00 | 0.00 | 20 | 1017.3 |
| 20260504011634 | 64 | 340 | 0.0 | 3.5 | 0.00 | 0.00 | 0.00 | 19 | 1017.4 |
| 20260504011128 | 64 | 340 | 0.9 | 3.5 | 0.00 | 0.00 | 0.00 | 19 | 1017.4 |
| 20260504010621 | 64 | 58 | 0.9 | 3.5 | 0.00 | 0.00 | 0.00 | 20 | 1017.4 |
| 20260504010136 | 64 | 40 | 0.9 | 3.5 | 0.00 | 0.00 | 0.00 | 19 | 1017.3 |
| 20260504005629 | 64 | 51 | 1.7 | 5.2 | 0.00 | 0.00 | 0.00 | 18 | 1017.4 |
| 20260504005127 | 65 | 78 | 1.7 | 5.2 | 0.00 | 0.00 | 0.00 | 19 | 1017.4 |
| 20260504004641 | 65 | 23 | 0.0 | 2.6 | 0.00 | 0.00 | 0.00 | 19 | 1017.5 |
| 20260504004154 | 65 | 23 | 0.0 | 2.6 | 0.00 | 0.00 | 0.00 | 19 | 1017.5 |
| 20260504003626 | 65 | 207 | 0.0 | 3.5 | 0.00 | 0.00 | 0.00 | 18 | 1017.5 |
| 20260504003139 | 65 | 360 | 1.7 | 3.5 | 0.00 | 0.00 | 0.00 | 18 | 1017.5 |
| 20260504002653 | 65 | 284 | 0.0 | 3.5 | 0.00 | 0.00 | 0.00 | 20 | 1017.5 |
| 20260504002126 | 65 | 252 | 1.7 | 4.3 | 0.00 | 0.00 | 0.00 | 19 | 1017.6 |
| 20260504001639 | 65 | 289 | 1.7 | 5.2 | 0.00 | 0.00 | 0.00 | 18 | 1017.5 |
| 20260504001131 | 66 | 257 | 2.6 | 5.2 | 0.00 | 0.00 | 0.00 | 18 | 1017.5 |
| 20260504000628 | 66 | 61 | 1.7 | 3.5 | 0.00 | 0.00 | 0.00 | 22 | 1017.6 |
| 20260504000121 | 67 | 46 | 1.7 | 3.5 | 0.00 | 0.00 | 0.00 | 22 | 1017.6 |
| 20260503235632 | 67 | 143 | 0.9 | 3.5 | 0.00 | 0.00 | 0.00 | 21 | 1017.6 |
| 20260503235125 | 66 | 284 | 1.7 | 2.6 | 0.00 | 0.00 | 0.00 | 22 | 1017.7 |
| 20260503234639 | 66 | 278 | 1.7 | 2.6 | 0.00 | 0.00 | 0.00 | 24 | 1017.7 |
| 20260503234132 | 65 | 293 | 0.9 | 3.5 | 0.00 | 0.00 | 0.00 | 24 | 1017.6 |
| 20260503233645 | 65 | 159 | 1.7 | 3.5 | 0.00 | 0.00 | 0.00 | 23 | 1017.6 |
| 20260503233138 | 65 | 348 | 1.7 | 4.3 | 0.00 | 0.00 | 0.00 | 24 | 1017.7 |
| 20260503232651 | 65 | 135 | 1.7 | 4.3 | 0.00 | 0.00 | 0.00 | 23 | 1017.9 |
| 20260503232123 | 65 | 235 | 1.7 | 3.5 | 0.00 | 0.00 | 0.00 | 24 | 1017.9 |
| 20260503231621 | 64 | 338 | 1.7 | 2.6 | 0.00 | 0.00 | 0.00 | 26 | 1017.9 |
| 20260503231133 | 64 | 344 | 1.7 | 2.6 | 0.00 | 0.00 | 0.00 | 26 | 1018.0 |
| 20260503230646 | 64 | 348 | 0.9 | 4.3 | 0.00 | 0.00 | 0.00 | 25 | 1018.1 |
| 20260503230139 | 64 | 325 | 1.7 | 4.3 | 0.00 | 0.00 | 0.00 | 26 | 1018.2 |
| 20260503225632 | 64 | 121 | 0.9 | 6.1 | 0.00 | 0.00 | 0.00 | 28 | 1018.3 |
| 20260503225146 | 63 | 155 | 2.6 | 6.1 | 0.00 | 0.00 | 0.00 | 27 | 1018.3 |
| 20260503224637 | 63 | 97 | 0.9 | 5.2 | 0.00 | 0.00 | 0.00 | 29 | 1018.5 |
| 20260503224130 | 63 | 95 | 1.7 | 5.2 | 0.00 | 0.00 | 0.00 | 28 | 1018.5 |
| 20260503223623 | 63 | 31 | 1.7 | 3.5 | 0.00 | 0.00 | 0.00 | 28 | 1018.7 |
| 20260503223156 | 64 | 88 | 1.7 | 5.2 | 0.00 | 0.00 | 0.00 | 27 | 1018.8 |
| 20260503222633 | 65 | 5 | 0.9 | 5.2 | 0.00 | 0.00 | 0.00 | 28 | 1018.8 |
| 20260503222139 | 65 | 75 | 0.9 | 3.5 | 0.00 | 0.00 | 0.00 | 28 | 1018.9 |
| 20260503221648 | 64 | 132 | 0.9 | 4.3 | 0.00 | 0.00 | 0.00 | 28 | 1018.9 |
| 20260503221159 | 65 | 329 | 1.7 | 4.3 | 0.00 | 0.00 | 0.00 | 27 | 1019.1 |
| 20260503220629 | 65 | 275 | 1.7 | 7.0 | 0.00 | 0.00 | 0.00 | 28 | 1019.2 |
| 20260503220201 | 65 | 128 | 3.5 | 7.0 | 0.00 | 0.00 | 0.00 | 27 | 1019.2 |
| 20260503215629 | 65 | 63 | 1.7 | 7.0 | 0.00 | 0.00 | 0.00 | 27 | 1019.2 |
| 20260503215122 | 66 | 45 | 1.7 | 5.2 | 0.00 | 0.00 | 0.00 | 27 | 1019.4 |
| 20260503214635 | 65 | 248 | 0.9 | 7.8 | 0.00 | 0.00 | 0.00 | 27 | 1019.4 |
| 20260503214148 | 65 | 130 | 3.5 | 7.8 | 0.00 | 0.00 | 0.00 | 27 | 1019.4 |
| 20260503213657 | 65 | 135 | 2.6 | 8.7 | 0.00 | 0.00 | 0.00 | 27 | 1019.6 |
| 20260503213128 | 66 | 336 | 3.5 | 8.7 | 0.00 | 0.00 | 0.00 | 26 | 1019.7 |
| 20260503212638 | 65 | 198 | 0.9 | 7.0 | 0.00 | 0.00 | 0.00 | 27 | 1019.7 |
| 20260503212134 | 66 | 129 | 0.9 | 6.1 | 0.00 | 0.00 | 0.00 | 26 | 1019.8 |
| 20260503211647 | 65 | 333 | 1.7 | 6.1 | 0.00 | 0.00 | 0.00 | 27 | 1020.0 |
| 20260503211139 | 64 | 322 | 1.7 | 4.3 | 0.00 | 0.00 | 0.00 | 30 | 1020.1 |
| 20260503210632 | 64 | 165 | 3.5 | 10.4 | 0.00 | 0.00 | 0.00 | 26 | 1020.2 |
| 20260503210125 | 64 | 78 | 1.7 | 8.7 | 0.00 | 0.00 | 0.00 | 27 | 1020.2 |
| 20260503205639 | 64 | 121 | 1.7 | 8.7 | 0.00 | 0.00 | 0.00 | 28 | 1020.4 |
| 20260503205133 | 64 | 63 | 1.7 | 7.8 | 0.00 | 0.00 | 0.00 | 29 | 1020.4 |
| 20260503204645 | 64 | 191 | 3.5 | 7.8 | 0.00 | 0.00 | 0.00 | 27 | 1020.7 |
| 20260503204138 | 64 | 94 | 2.6 | 7.0 | 0.00 | 0.00 | 0.00 | 28 | 1020.7 |
| 20260503203635 | 63 | 87 | 0.9 | 4.3 | 0.00 | 0.00 | 0.00 | 28 | 1020.7 |
| 20260503203150 | 63 | 342 | 1.7 | 7.0 | 0.00 | 0.00 | 0.00 | 29 | 1020.9 |
| 20260503202644 | 64 | 49 | 1.7 | 9.6 | 0.00 | 0.00 | 0.00 | 29 | 1021.0 |
| 20260503202137 | 64 | 250 | 3.5 | 9.6 | 0.00 | 0.00 | 0.00 | 27 | 1021.2 |
| 20260503201631 | 65 | 324 | 1.7 | 7.0 | 0.00 | 0.00 | 0.00 | 28 | 1021.3 |
| 20260503201125 | 64 | 69 | 2.6 | 7.0 | 0.00 | 0.00 | 0.00 | 28 | 1021.3 |
| 20260503200638 | 65 | 120 | 1.7 | 5.2 | 0.00 | 0.00 | 0.00 | 27 | 1021.5 |
| 20260503200133 | 65 | 132 | 2.6 | 7.0 | 0.00 | 0.00 | 0.00 | 27 | 1021.3 |
| 20260503195647 | 64 | 88 | 2.6 | 7.0 | 0.00 | 0.00 | 0.00 | 31 | 1021.3 |
| 20260503195122 | 63 | 146 | 0.9 | 7.8 | 0.00 | 0.00 | 0.00 | 31 | 1021.5 |
| 20260503194636 | 62 | 293 | 0.9 | 7.8 | 0.00 | 0.00 | 0.00 | 32 | 1021.6 |
| 20260503194130 | 61 | 178 | 2.6 | 7.0 | 0.00 | 0.00 | 0.00 | 32 | 1021.6 |
| 20260503193622 | 61 | 331 | 2.6 | 7.0 | 0.00 | 0.00 | 0.00 | 32 | 1021.9 |
| 20260503193136 | 61 | 182 | 0.9 | 6.1 | 0.00 | 0.00 | 0.00 | 33 | 1022.0 |
| 20260503192630 | 61 | 128 | 2.6 | 6.1 | 0.00 | 0.00 | 0.00 | 33 | 1022.0 |
| 20260503192123 | 61 | 304 | 1.7 | 4.3 | 0.00 | 0.00 | 0.00 | 34 | 1022.1 |
| 20260503191636 | 61 | 148 | 1.7 | 7.8 | 0.00 | 0.00 | 0.00 | 33 | 1022.2 |
| 20260503191149 | 61 | 126 | 1.7 | 7.8 | 0.00 | 0.00 | 0.00 | 33 | 1022.2 |
| 20260503190626 | 62 | 319 | 2.6 | 6.1 | 0.00 | 0.00 | 0.00 | 34 | 1022.4 |
| 20260503190139 | 62 | 153 | 1.7 | 6.1 | 0.00 | 0.00 | 0.00 | 35 | 1022.6 |
| 20260503185633 | 62 | 202 | 0.9 | 9.6 | 0.00 | 0.00 | 0.00 | 35 | 1022.6 |
| 20260503185146 | 63 | 177 | 4.3 | 9.6 | 0.00 | 0.00 | 0.00 | 34 | 1022.7 |
| 20260503184637 | 62 | 278 | 0.9 | 7.0 | 0.00 | 0.00 | 0.00 | 34 | 1022.7 |
| 20260503184131 | 62 | 171 | 1.7 | 7.0 | 0.00 | 0.00 | 0.00 | 35 | 1022.8 |
| 20260503183626 | 61 | 221 | 0.9 | 3.5 | 0.00 | 0.00 | 0.00 | 37 | 1023.0 |
| 20260503183138 | 60 | 107 | 0.9 | 7.0 | 0.00 | 0.00 | 0.00 | 36 | 1023.1 |
| 20260503182631 | 60 | 122 | 2.6 | 7.0 | 0.00 | 0.00 | 0.00 | 34 | 1023.1 |
| 20260503182128 | 61 | 81 | 1.7 | 7.0 | 0.00 | 0.00 | 0.00 | 34 | 1023.2 |
| 20260503181623 | 61 | 89 | 1.7 | 7.0 | 0.00 | 0.00 | 0.00 | 35 | 1023.4 |
| 20260503181137 | 61 | 110 | 1.7 | 7.0 | 0.00 | 0.00 | 0.00 | 35 | 1023.4 |
| 20260503180630 | 61 | 115 | 2.6 | 7.0 | 0.00 | 0.00 | 0.00 | 36 | 1023.4 |
| 20260503180124 | 61 | 144 | 1.7 | 5.2 | 0.00 | 0.00 | 0.00 | 36 | 1023.5 |
| 20260503175658 | 61 | 142 | 2.6 | 5.2 | 0.00 | 0.00 | 0.00 | 35 | 1023.6 |
| 20260503175130 | 61 | 156 | 2.6 | 6.1 | 0.00 | 0.00 | 0.00 | 35 | 1023.6 |
| 20260503174625 | 61 | 182 | 1.7 | 6.1 | 0.00 | 0.00 | 0.00 | 36 | 1023.7 |
| 20260503174143 | 61 | 112 | 1.7 | 5.2 | 0.00 | 0.00 | 0.00 | 39 | 1023.7 |
| 20260503173636 | 60 | 279 | 1.7 | 6.1 | 0.00 | 0.00 | 0.00 | 36 | 1023.7 |
| 20260503173129 | 60 | 123 | 1.7 | 4.3 | 0.00 | 0.00 | 0.00 | 38 | 1024.0 |
| 20260503172643 | 60 | 96 | 1.7 | 6.1 | 0.00 | 0.00 | 0.00 | 41 | 1024.1 |
| 20260503172136 | 60 | 284 | 0.0 | 6.1 | 0.00 | 0.00 | 0.00 | 40 | 1024.1 |
| 20260503171630 | 59 | 145 | 1.7 | 4.3 | 0.00 | 0.00 | 0.00 | 41 | 1024.3 |
| 20260503171125 | 58 | 121 | 1.7 | 6.1 | 0.00 | 0.00 | 0.00 | 41 | 1024.1 |
| 20260503170639 | 58 | 167 | 4.3 | 6.1 | 0.00 | 0.00 | 0.00 | 41 | 1024.2 |
| 20260503170134 | 58 | 54 | 2.6 | 4.3 | 0.00 | 0.00 | 0.00 | 42 | 1024.1 |
| 20260503160126 | 54 | 62 | 0.9 | 4.3 | 0.00 | 0.01 | 0.00 | 47 | 1024.6 |
| 20260503150629 | 51 | 150 | 1.7 | 3.5 | 0.00 | 0.01 | 0.00 | 52 | 1025.0 |
| 20260503150124 | 51 | 102 | 0.9 | 4.3 | 0.00 | 0.01 | 0.00 | 56 | 1025.1 |
| 20260503140126 | 42 | 189 | 0.0 | 0.0 | 0.00 | 0.01 | 0.00 | 84 | 1025.0 |
| 20260503131124 | 33 | 302 | 0.0 | 0.0 | 0.00 | 0.01 | 0.00 | 87 | 1025.3 |
| 20260503130640 | 33 | 302 | 0.0 | 0.0 | 0.00 | 0.01 | 0.00 | 87 | 1025.2 |
| 20260503130155 | 33 | 302 | 0.0 | 0.0 | 0.00 | 0.01 | 0.00 | 87 | 1025.3 |
| 20260503120126 | 33 | 302 | 0.0 | 0.0 | 0.00 | 0.01 | 0.00 | 84 | 1024.8 |
| 20260503110640 | 34 | 302 | 0.0 | 0.0 | 0.00 | 0.01 | 0.00 | 82 | 1024.7 |
| 20260503110140 | 34 | 302 | 0.0 | 0.0 | 0.00 | 0.01 | 0.00 | 82 | 1024.6 |
| 20260503100125 | 35 | 360 | 0.0 | 0.0 | 0.00 | 0.01 | 0.00 | 81 | 1024.8 |
| 20260503090127 | 37 | 360 | 0.0 | 0.0 | 0.00 | 0.01 | 0.00 | 77 | 1024.8 |
| 20260503081630 | 39 | 360 | 0.0 | 0.0 | 0.00 | 0.01 | 0.00 | 75 | 1024.8 |
| 20260503081130 | 39 | 360 | 0.0 | 0.0 | 0.00 | 0.01 | 0.00 | 75 | 1024.9 |
| 20260503080625 | 39 | 360 | 0.0 | 0.0 | 0.00 | 0.01 | 0.00 | 75 | 1024.9 |
| 20260503080141 | 39 | 360 | 0.0 | 0.0 | 0.00 | 0.01 | 0.00 | 74 | 1024.8 |
| 20260503072631 | 41 | 308 | 0.0 | 0.0 | 0.00 | 0.01 | 0.00 | 71 | 1025.1 |
| 20260503072148 | 41 | 308 | 0.0 | 0.0 | 0.00 | 0.01 | 0.00 | 71 | 1025.2 |
| 20260503071623 | 41 | 308 | 0.0 | 0.0 | 0.00 | 0.01 | 0.00 | 71 | 1025.2 |
| 20260503071137 | 41 | 308 | 0.0 | 0.0 | 0.00 | 0.01 | 0.00 | 71 | 1025.2 |
| 20260503070634 | 41 | 308 | 0.0 | 0.0 | 0.00 | 0.01 | 0.00 | 70 | 1025.2 |
| 20260503070128 | 42 | 308 | 0.0 | 0.0 | 0.00 | 0.01 | 0.00 | 69 | 1025.3 |
| 20260503060138 | 42 | 282 | 0.0 | 0.0 | 0.00 | 0.01 | 0.00 | 67 | 1025.1 |
| 20260503054623 | 42 | 282 | 0.0 | 0.0 | 0.00 | 0.01 | 0.01 | 65 | 1025.0 |
| 20260503054159 | 42 | 282 | 0.0 | 0.0 | 0.00 | 0.01 | 0.01 | 64 | 1024.9 |
| 20260503053635 | 42 | 282 | 0.0 | 0.0 | 0.00 | 0.01 | 0.01 | 63 | 1025.0 |
| 20260503053130 | 42 | 281 | 0.0 | 0.0 | 0.00 | 0.01 | 0.01 | 62 | 1025.0 |
| 20260503052629 | 43 | 281 | 0.0 | 0.0 | 0.00 | 0.01 | 0.01 | 63 | 1025.1 |
| 20260503052125 | 43 | 281 | 0.0 | 0.0 | 0.00 | 0.01 | 0.01 | 62 | 1025.0 |
| 20260503051640 | 43 | 280 | 0.0 | 0.0 | 0.00 | 0.01 | 0.01 | 60 | 1025.0 |
| 20260503051136 | 43 | 280 | 0.0 | 0.0 | 0.00 | 0.01 | 0.01 | 61 | 1025.0 |
| 20260503050631 | 44 | 280 | 0.0 | 0.0 | 0.00 | 0.01 | 0.01 | 60 | 1025.0 |
| 20260503050127 | 44 | 277 | 0.0 | 0.0 | 0.00 | 0.01 | 0.01 | 59 | 1025.0 |